When you browse on this site, cookies collect data to enhance your experience and personalize the content and advertising you see.
Visit our Privacy Policy to learn more. By continuing to use the site, you agree to this use of cookies and data.
  • In Hungary
  • List of Countries
  • For 7 days
  • Water Temperature
  • Satellite Maps
  • Weather Map
  • News
  • Weather Widgets
  • user-avatar
    Login

    Hourly Weather Essen

    Today, 19 July, Friday

    Time Temperature Precipitation Wind Pressure Humidity
    00:00 +19°C° 0 mm 2 mps 751 mmHg 82%
    01:00 +18°C° 0 mm 2 mps 751 mmHg 82%
    02:00 +18°C° 0 mm 2 mps 751 mmHg 83%
    03:00 +19°C° 0 mm 1 mps 751 mmHg 84%
    04:00 +18°C° 0.1 mm 2 mps 752 mmHg 81%
    05:00 +18°C° 0.1 mm 2 mps 752 mmHg 79%
    06:00 +19°C° 0.1 mm 2 mps 752 mmHg 77%
    07:00 +20°C° 0 mm 2 mps 752 mmHg 69%
    08:00 +21°C° 0 mm 2 mps 752 mmHg 61%
    09:00 +24°C° 0 mm 3 mps 753 mmHg 52%
    10:00 +25°C° 0 mm 3 mps 752 mmHg 48%
    11:00 +26°C° 0 mm 3 mps 752 mmHg 43%
    12:00 +27°C° 0 mm 3 mps 752 mmHg 38%
    13:00 +27°C° 0 mm 3 mps 752 mmHg 38%
    14:00 +27°C° 0 mm 3 mps 752 mmHg 38%
    15:00 +27°C° 0 mm 3 mps 752 mmHg 37%
    16:00 +26°C° 0 mm 2 mps 752 mmHg 41%
    17:00 +26°C° 0 mm 2 mps 752 mmHg 45%
    18:00 +25°C° 0 mm 2 mps 752 mmHg 49%
    19:00 +24°C° 0 mm 1 mps 752 mmHg 52%
    20:00 +23°C° 0 mm 1 mps 752 mmHg 54%
    21:00 +22°C° 0 mm 1 mps 753 mmHg 56%
    22:00 +22°C° 0 mm 1 mps 753 mmHg 59%
    23:00 +21°C° 0 mm 1 mps 753 mmHg 61%

    Tomorrow, 20 July, Saturday

    Time Temperature Precipitation Wind Pressure Humidity
    00:00 +21°C° 0 mm 1 mps 753 mmHg 64%
    01:00 +19°C° 0 mm 2 mps 752 mmHg 66%
    02:00 +19°C° 0 mm 2 mps 752 mmHg 67%
    03:00 +19°C° 0 mm 2 mps 752 mmHg 69%
    04:00 +19°C° 0 mm 2 mps 752 mmHg 66%
    05:00 +20°C° 0 mm 3 mps 751 mmHg 64%
    06:00 +21°C° 0 mm 3 mps 751 mmHg 62%
    07:00 +23°C° 0 mm 4 mps 751 mmHg 58%
    08:00 +25°C° 0 mm 4 mps 751 mmHg 54%
    09:00 +27°C° 0 mm 4 mps 751 mmHg 50%
    10:00 +26°C° 1 mm 4 mps 751 mmHg 55%
    11:00 +26°C° 1 mm 3 mps 751 mmHg 60%
    12:00 +26°C° 1 mm 3 mps 751 mmHg 64%
    13:00 +26°C° 0.9 mm 3 mps 751 mmHg 62%
    14:00 +27°C° 0.9 mm 3 mps 751 mmHg 61%
    15:00 +27°C° 0.9 mm 3 mps 751 mmHg 59%
    16:00 +27°C° 1.3 mm 3 mps 751 mmHg 62%
    17:00 +26°C° 1.3 mm 3 mps 751 mmHg 65%
    18:00 +25°C° 1.3 mm 3 mps 751 mmHg 69%
    19:00 +24°C° 0.4 mm 3 mps 751 mmHg 71%
    20:00 +22°C° 0.4 mm 3 mps 752 mmHg 74%
    21:00 +21°C° 0.4 mm 2 mps 752 mmHg 77%
    22:00 +21°C° 0.1 mm 2 mps 752 mmHg 79%
    23:00 +20°C° 0.1 mm 2 mps 752 mmHg 80%

    Day after tomorrow, 21 July, Sunday

    Time Temperature Precipitation Wind Pressure Humidity
    00:00 +20°C° 0.1 mm 2 mps 753 mmHg 82%
    01:00 +19°C° 0 mm 2 mps 753 mmHg 83%
    02:00 +19°C° 0 mm 2 mps 753 mmHg 85%
    03:00 +18°C° 0 mm 3 mps 753 mmHg 86%
    04:00 +18°C° 0 mm 3 mps 754 mmHg 84%
    05:00 +18°C° 0 mm 3 mps 754 mmHg 82%
    06:00 +18°C° 0 mm 3 mps 755 mmHg 81%
    07:00 +20°C° 0 mm 3 mps 755 mmHg 75%
    08:00 +21°C° 0 mm 4 mps 756 mmHg 70%
    09:00 +22°C° 0 mm 4 mps 756 mmHg 65%
    10:00 +23°C° 0.1 mm 4 mps 756 mmHg 60%
    11:00 +25°C° 0.1 mm 4 mps 757 mmHg 55%
    12:00 +26°C° 0.1 mm 4 mps 757 mmHg 50%
    13:00 +27°C° 0.1 mm 4 mps 757 mmHg 50%
    14:00 +27°C° 0.1 mm 3 mps 757 mmHg 51%
    15:00 +27°C° 0.1 mm 3 mps 757 mmHg 51%
    16:00 +26°C° 0.1 mm 3 mps 758 mmHg 54%
    17:00 +25°C° 0.1 mm 3 mps 758 mmHg 57%
    18:00 +25°C° 0.1 mm 2 mps 758 mmHg 61%
    19:00 +24°C° 0 mm 2 mps 758 mmHg 65%
    20:00 +22°C° 0 mm 1 mps 759 mmHg 69%
    21:00 +21°C° 0 mm 1 mps 759 mmHg 73%
    22:00 +21°C° 0 mm 1 mps 759 mmHg 74%
    23:00 +18°C° 0 mm 0 mps 759 mmHg 74%

    22 July, Monday

    Time Temperature Precipitation Wind Pressure Humidity
    00:00 +18°C° 0 mm 0 mps 759 mmHg 75%
    01:00 +17°C° 0 mm 0 mps 759 mmHg 77%
    02:00 +17°C° 0 mm 0 mps 759 mmHg 78%
    03:00 +19°C° 0 mm 1 mps 759 mmHg 80%
    04:00 +20°C° 0 mm 1 mps 760 mmHg 78%
    05:00 +20°C° 0 mm 1 mps 760 mmHg 75%
    06:00 +21°C° 0 mm 1 mps 760 mmHg 73%
    07:00 +22°C° 0 mm 1 mps 760 mmHg 67%
    08:00 +24°C° 0 mm 1 mps 760 mmHg 61%
    09:00 +26°C° 0 mm 1 mps 760 mmHg 55%
    10:00 +27°C° 0 mm 2 mps 760 mmHg 50%
    11:00 +28°C° 0 mm 2 mps 760 mmHg 45%
    12:00 +29°C° 0 mm 2 mps 760 mmHg 40%
    13:00 +30°C° 0 mm 2 mps 760 mmHg 38%
    14:00 +30°C° 0 mm 2 mps 760 mmHg 37%
    15:00 +30°C° 0 mm 2 mps 760 mmHg 35%
    16:00 +30°C° 0 mm 2 mps 760 mmHg 39%
    17:00 +29°C° 0 mm 1 mps 760 mmHg 43%
    18:00 +28°C° 0 mm 1 mps 760 mmHg 47%
    19:00 +27°C° 0 mm 1 mps 760 mmHg 52%
    20:00 +25°C° 0 mm 1 mps 760 mmHg 57%
    21:00 +24°C° 0 mm 1 mps 760 mmHg 62%
    22:00 +23°C° 0 mm 1 mps 760 mmHg 64%
    23:00 +23°C° 0 mm 1 mps 760 mmHg 65%

    23 July, Tuesday

    Time Temperature Precipitation Wind Pressure Humidity
    00:00 +22°C° 0 mm 1 mps 760 mmHg 67%
    01:00 +22°C° 0 mm 1 mps 760 mmHg 68%
    02:00 +22°C° 0 mm 1 mps 759 mmHg 70%
    03:00 +21°C° 0 mm 1 mps 759 mmHg 71%
    04:00 +22°C° 0 mm 1 mps 759 mmHg 69%
    05:00 +23°C° 0 mm 1 mps 759 mmHg 66%
    06:00 +24°C° 0 mm 1 mps 759 mmHg 64%
    07:00 +26°C° 0 mm 1 mps 759 mmHg 57%
    08:00 +28°C° 0 mm 1 mps 759 mmHg 49%
    09:00 +30°C° 0 mm 1 mps 758 mmHg 42%
    10:00 +31°C° 0 mm 2 mps 758 mmHg 38%
    11:00 +34°C° 0 mm 2 mps 758 mmHg 34%
    12:00 +35°C° 0 mm 2 mps 757 mmHg 31%
    13:00 +35°C° 0 mm 2 mps 757 mmHg 30%
    14:00 +35°C° 0 mm 2 mps 757 mmHg 30%
    15:00 +36°C° 0 mm 2 mps 756 mmHg 29%
    16:00 +35°C° 0 mm 2 mps 756 mmHg 33%
    17:00 +34°C° 0 mm 2 mps 756 mmHg 37%
    18:00 +32°C° 0 mm 2 mps 756 mmHg 41%
    19:00 +30°C° 0 mm 2 mps 756 mmHg 44%
    20:00 +29°C° 0 mm 3 mps 755 mmHg 47%
    21:00 +28°C° 0 mm 3 mps 755 mmHg 51%
    22:00 +27°C° 0 mm 3 mps 755 mmHg 52%
    23:00 +26°C° 0 mm 3 mps 755 mmHg 53%

    24 July, Wednesday

    Time Temperature Precipitation Wind Pressure Humidity
    00:00 +26°C° 0 mm 3 mps 755 mmHg 55%
    01:00 +25°C° 0 mm 2 mps 755 mmHg 57%
    02:00 +25°C° 0 mm 2 mps 755 mmHg 59%
    03:00 +24°C° 0 mm 2 mps 754 mmHg 61%
    04:00 +25°C° 0 mm 2 mps 754 mmHg 59%
    05:00 +26°C° 0 mm 3 mps 754 mmHg 57%
    06:00 +27°C° 0 mm 3 mps 754 mmHg 55%
    07:00 +29°C° 0 mm 3 mps 754 mmHg 51%
    08:00 +30°C° 0 mm 3 mps 754 mmHg 46%
    09:00 +33°C° 0 mm 3 mps 754 mmHg 41%
    10:00 +35°C° 0 mm 3 mps 754 mmHg 37%
    11:00 +36°C° 0 mm 2 mps 754 mmHg 33%
    12:00 +38°C° 0 mm 2 mps 754 mmHg 29%
    13:00 +38°C° 0 mm 2 mps 754 mmHg 29%
    14:00 +39°C° 0 mm 2 mps 754 mmHg 29%
    15:00 +39°C° 0 mm 1 mps 754 mmHg 28%
    16:00 +37°C° 0 mm 1 mps 754 mmHg 31%
    17:00 +37°C° 0 mm 1 mps 754 mmHg 35%
    18:00 +36°C° 0 mm 1 mps 754 mmHg 38%
    19:00 +34°C° 0 mm 1 mps 754 mmHg 41%
    20:00 +32°C° 0 mm 2 mps 754 mmHg 44%
    21:00 +30°C° 0 mm 2 mps 754 mmHg 47%
    22:00 +30°C° 0 mm 2 mps 754 mmHg 48%
    23:00 +29°C° 0 mm 2 mps 754 mmHg 48%
    Show more